Flag Weather past 2 weeks in Tacoma, Washington, U.S.A.

Now
54 °F

Mostly cloudy.


Feels Like: 49 °F
Forecast: 38 / 53 °F
Wind: 17 mph from South

Location: Tacoma Narrows Airport

Current Time: Nov 28, 2014 at 9:20:23 AM

Latest Report: Nov 28, 2014 at 8:53 AM


Visibility: 10 mi

Pressure: 29.50 "Hg

Humidity: 83%

Dew point: 49 °F

Location of TacomaLocation

Historic Weather in Tacoma — Graph

°F

Tacoma temperature yesterday

Maximum temperature yesterday: 57 °F (at 12:53 AM)
Minimum temperature yesterday: 52 °F (at 2:53 AM)
Average temperature yesterday: 54 °F

Past Weeks' High & Low Weather Summary

 TemperatureHumidityPressure
High58 °F (Nov 26, 10:53 PM)100% (Nov 17, 7:53 AM)30.53 "Hg (Nov 17, 7:53 AM)
Low29 °F (Nov 16, 6:53 AM)26% (Nov 13, 1:53 PM)29.31 "Hg (Nov 21, 5:53 PM)
Average45 °F76%30.08 "Hg
* Reported Nov 13 7:53 AM — Nov 28 7:53 AM, Tacoma, Weather by CustomWeather, © 2014

Note: Actual official high and low records may vary slightly from our data, if they occured in-between our weather recording intervals... More about our weather records

Advertising

Tacoma weather history for previous 24 hours

 ConditionsComfort  
Time TempWeatherWind HumidityBarometerVisibility
7:53 AM
Nov 28
54 °FMore clouds than sun.17 mph83%29.52 "Hg10 mi
6:53 AM53 °FOvercast.15 mph86%29.54 "Hg10 mi
5:53 AM53 °FOvercast.16 mph86%29.57 "Hg10 mi
5:04 AM53 °FLight rain. Mostly cloudy.18 mph86%29.58 "Hg10 mi
4:53 AM53 °FMostly cloudy.18 mph86%29.58 "Hg10 mi
3:53 AM53 °FLight rain. Mostly cloudy.17 mph89%29.62 "Hg10 mi
2:53 AM53 °FPassing clouds.20 mph86%29.65 "Hg10 mi
1:53 AM53 °FOvercast.21 mph86%29.66 "Hg10 mi
12:53 AM53 °FLight rain. Mostly cloudy.22 mph86%29.68 "Hg10 mi
12:03 AM53 °FOvercast.23 mph86%29.70 "Hg10 mi
11:53 PM
Nov 27
53 °FMostly cloudy.21 mph86%29.69 "Hg10 mi
11:01 PM53 °FOvercast.16 mph89%29.71 "Hg10 mi
9:53 PM53 °FMostly cloudy.14 mph89%29.73 "Hg10 mi
8:53 PM52 °FMostly cloudy.18 mph93%29.74 "Hg10 mi
8:00 PM53 °FMostly cloudy.17 mph89%29.76 "Hg9 mi
6:53 PM53 °FLight rain. Overcast.20 mph89%29.77 "Hg10 mi
5:53 PM53 °FLight rain. Mostly cloudy.15 mph89%29.77 "Hg9 mi
4:53 PM54 °FLight rain. Overcast.20 mph86%29.78 "Hg8 mi
3:53 PM54 °FBroken clouds.15 mph86%29.79 "Hg10 mi
2:53 PM55 °FCloudy.18 mph87%29.80 "Hg10 mi
1:53 PM54 °FLight rain. Cloudy.16 mph90%29.81 "Hg9 mi
12:53 PM54 °FFog.20 mph90%29.82 "Hg6 mi
11:53 AM54 °FFog.16 mph90%29.83 "Hg4 mi
10:53 AM54 °FLight rain. Fog.17 mph86%29.86 "Hg2 mi
9:53 AM55 °FMostly cloudy.14 mph83%29.86 "Hg10 mi
Weather by CustomWeather, © 2014

See weather overviewHow to use our weather pages